Regional Weather Roundup
Issued by NWS

Home | Current Version | Previous Version | Text Only | Print | Product List | Glossary Off
Versions: 1 2 3 4 5 6 7 8 9 10 11 12 13 14 15 16 17 18 19 20 21 22 23 24 25 26 27 28 29 30 31 32 33 34 35 36 37 38 39 40 41 42 43 44 45 46 47 48 49 50

588
ASUS43 KLSX 280007
RWRMO

WEATHER SUMMARY FOR MISSOURI
NATIONAL WEATHER SERVICE SPRINGFIELD MO
700 PM CDT SAT MAY 27 2017

NOTE: "FAIR" INDICATES FEW OR NO CLOUDS BELOW 12,000 FEET WITH NO
       SIGNIFICANT WEATHER AND/OR OBSTRUCTIONS TO VISIBILITY.
       CURRENT SKY AND/OR WEATHER CONDITIONS ARE NOT AVAILABLE FOR
       CHILLICOTHE AND FARMINGTON.

MOZ001>031-035>038-043-044-053-054-280100-
...NORTHERN AND WESTERN MISSOURI...

CITY           SKY/WX    TMP DP  RH WIND       PRES   REMARKS
KANSAS CTY INT CLOUDY    73  62  68 N14       29.80F
6HR MIN TEMP:  64; 6HR MAX TEMP:  75; 6HR PCP:  0.02;

KANSAS C DTWN  CLOUDY    75  64  68 CALM      29.79F
6HR MIN TEMP:  65; 6HR MAX TEMP:  77; 6HR PCP:  0.02;

LEE`S SUMMIT   CLOUDY    71  61  70 CALM      29.80S
6HR MIN TEMP:  64; 6HR MAX TEMP:  72; 6HR PCP:  0.05;

ST JOSEPH      CLOUDY    74  65  73 N14       29.82F
6HR MIN TEMP:  67; 6HR MAX TEMP:  77;

CHILLICOTHE      N/A     78  65  63 N5        29.79F
6HR MIN TEMP:  71; 6HR MAX TEMP:  78;

KIRKSVILLE     CLOUDY    76  65  68 NE6       29.81F
6HR MIN TEMP:  74; 6HR MAX TEMP:  79;


$$
MOZ066>068-077>081-088>096-101>105-280100-
...SOUTHWEST MISSOURI...

CITY           SKY/WX    TMP DP  RH WIND       PRES   REMARKS
SPRINGFIELD    TSTM      65  59  81 SW24G35   29.79F
6HR MIN TEMP:  62; 6HR MAX TEMP:  83; 6HR PCP:  1.43;

JOPLIN         CLOUDY    71  69  93 E17G25    29.75R
6HR MIN TEMP:  71; 6HR MAX TEMP:  86; 6HR PCP:  0.62;

BRANSON        CLOUDY    82  70  65 S13       29.79R

$$
MOZ032>034-039>042-045>050-055>058-069>072-280100-
...CENTRAL MISSOURI...

CITY           SKY/WX    TMP DP  RH WIND       PRES   REMARKS
COLUMBIA       CLOUDY    64  62  93 NW9       29.80R
6HR MIN TEMP:  60; 6HR MAX TEMP:  79; 6HR PCP:  1.48;

JEFFERSON CITY CLOUDY    65  60  84 SE3       29.78F
6HR MIN TEMP:  65; 6HR MAX TEMP:  78; 6HR PCP:  1.59;

ROLLA          CLOUDY    61  61 100 VRB6      29.77F
6HR MIN TEMP:  60; 6HR MAX TEMP:  77; 6HR PCP:  0.82;

SEDALIA        CLOUDY    67  64  90 NE14      29.84R
6HR MIN TEMP:  62; 6HR MAX TEMP:  74; 6HR PCP:  0.33;

WHITEMAN AFB   CLOUDY    67  67 100 E9        29.78S
WARRENSBURG    PTSUNNY   68  59  73 NE3       29.79F

$$
MOZ051-052-059>065-280100-
...EAST CENTRAL MISSOURI...

CITY           SKY/WX    TMP DP  RH WIND       PRES   REMARKS
ST LOUIS INTL  LGT RAIN  68  61  78 E21       29.74F
6HR MIN TEMP:  67; 6HR MAX TEMP:  80; 6HR PCP:  0.41;

SPIRIT OF STL  CLOUDY    67  61  81 SE7G26    29.73F
6HR MIN TEMP:  65; 6HR MAX TEMP:  78; 6HR PCP:  0.67;

ST CHARLES     CLOUDY    66  63  90 E30G36    29.64F
6HR MIN TEMP:  65; 6HR MAX TEMP:  80; 6HR PCP:  0.28;


$$
MOZ072>076-082>087-097>100-106>115-280100-
...SOUTH CENTRAL AND SOUTHEAST MISSOURI...

CITY           SKY/WX    TMP DP  RH WIND       PRES   REMARKS
CAPE GIRARDEAU CLOUDY    69  58  67 N6G22     29.85F THUNDER
6HR MIN TEMP:  68; 6HR MAX TEMP:  87; 6HR PCP:  0.06;

POPLAR BLUFF   CLOUDY    66  63  90 E7        29.85F
6HR MIN TEMP:  65; 6HR MAX TEMP:  86; 6HR PCP:  0.07;

WEST PLAINS    CLOUDY    67  62  84 E8        29.82R
6HR MIN TEMP:  67; 6HR MAX TEMP:  85; 6HR PCP: TRACE;


$$




USA.gov is the U.S. government's official web portal to all federal, state and local government web resources and services.